Location: Castellar de la Frontera
(36.3200°N, 5.4500°W)
Time: 18:54:08
(UTC+01:00)

ISS - Visible Passes

Search period start: 17 January 2018 00:00
Search period end: 27 January 2018 00:00
Orbit: 402 x 407 km, 51.6° (Epoch: 17 January)

Date Brightness Start Highest point End Pass type
(mag) Time Alt. Az. Time Alt. Az. Time Alt. Az.
17 Jan -3.6 06:52:28 59° SSW 06:52:28 59° SSW 06:55:25 10° SE visible
18 Jan -0.6 06:02:44 13° ESE 06:02:44 13° ESE 06:03:09 10° ESE visible
18 Jan -1.5 07:35:25 10° WSW 07:35:59 11° SW 07:36:52 10° SW visible
19 Jan -1.4 06:45:45 14° S 06:45:45 14° S 06:46:30 10° S visible
22 Jan -1.2 20:41:46 10° SSW 20:42:30 16° SSW 20:42:30 16° SSW visible
23 Jan -2.4 19:50:05 10° S 19:52:41 22° SE 19:52:50 22° SE visible
24 Jan -2.6 20:33:22 10° WSW 20:35:46 42° W 20:35:46 42° W visible
25 Jan -3.8 19:41:00 10° SW 19:44:12 63° SE 19:45:55 25° ENE visible
26 Jan -2.1 20:25:35 10° W 20:28:21 25° NNW 20:28:39 25° NNW visible
